{"data":{"norad_id":63025,"epoch":"2026-05-24T17:38:37.061952Z","epoch_age_seconds":97136,"freshness":"FRESH","line1":"1 63025U 25032W   26144.73515118  .00023762  00000+0  87125-3 0  9991","line2":"2 63025  42.9997 266.2810 0001425 282.6061  77.4632 15.27542094 72254","mean_motion":15.27542094,"eccentricity":0.0001425,"inclination_deg":42.9997,"raan_deg":266.281,"arg_perigee_deg":282.6061,"mean_anomaly_deg":77.4632,"bstar":0.00087125,"rev_number":7225,"period_min":94.269087945671,"perigee_km":482.18486739406,"apogee_km":484.1403377808,"semimajor_km":6861.2996025874,"source":"CELESTRAK","updated_at":"2026-05-25T13:38:19.864372Z"}}